User: anonymous   Login
Location: Newark
(60.6561°N, 46.5772°E)
Time: 19:29:13
(UTC+00:00)
Language:

Explorer 7 - Orbit

View from above orbital plane
View from above orbital plane
View from above satellite
View from above satellite

Ground track
Ground track

The orbit data is extracted from the following two-line orbital elements,

1    22U 59009A   19294.81392553 +.00000118 +00000-0 +32313-4 0  9994
2    22 050.2826 146.3104 0140156 063.2611 298.2601 14.94961232189472
Epoch (UTC): 21 October 2019 19:32:03
Eccentricity: 0.0140156
inclination: 50.2826°
perigee height: 485 km
apogee height: 680 km
right ascension of ascending node: 146.3104°
argument of perigee: 63.2611°
revolutions per day: 14.94961232
mean anomaly at epoch: 298.2601°
orbit number at epoch: 18947

The dashed part of the orbit path shows where the satellite is in the earth's shadow,  

DLR